When you browse on this site, cookies collect data to enhance your experience and personalize the content and advertising you see.
Visit our Privacy Policy to learn more. By continuing to use the site, you agree to this use of cookies and data.
  • In Romania
  • List of Countries
  • For 7 days
  • Water Temperature
  • Satellite Maps
  • Weather Map
  • Weather Widgets
  • user-avatar
    Login

    Hourly Weather Adelaide

    Today, 16 June, Sunday

    Time Temperature Precipitation Wind Pressure Humidity
    00:00 +11°C° 0 mm 3 mps 760 mmHg 77%
    01:00 +11°C° 0 mm 3 mps 760 mmHg 77%
    02:00 +11°C° 0 mm 3 mps 760 mmHg 78%
    03:00 +11°C° 0 mm 3 mps 760 mmHg 78%
    04:00 +10°C° 0 mm 3 mps 760 mmHg 78%
    05:00 +10°C° 0 mm 3 mps 761 mmHg 78%
    06:00 +10°C° 0 mm 3 mps 761 mmHg 79%
    07:00 +10°C° 0 mm 3 mps 761 mmHg 74%
    08:00 +11°C° 0 mm 3 mps 761 mmHg 70%
    09:00 +12°C° 0 mm 3 mps 761 mmHg 66%
    10:00 +13°C° 0 mm 3 mps 761 mmHg 63%
    11:00 +14°C° 0 mm 3 mps 761 mmHg 60%
    12:00 +16°C° 0 mm 3 mps 761 mmHg 57%
    13:00 +16°C° 0 mm 2 mps 761 mmHg 57%
    14:00 +15°C° 0 mm 2 mps 761 mmHg 58%
    15:00 +15°C° 0 mm 2 mps 761 mmHg 59%
    16:00 +14°C° 0 mm 2 mps 761 mmHg 63%
    17:00 +13°C° 0 mm 2 mps 761 mmHg 68%
    18:00 +12°C° 0 mm 2 mps 762 mmHg 73%
    19:00 +12°C° 0 mm 2 mps 762 mmHg 74%
    20:00 +12°C° 0 mm 2 mps 762 mmHg 75%
    21:00 +11°C° 0 mm 3 mps 762 mmHg 77%
    22:00 +10°C° 0 mm 3 mps 762 mmHg 78%
    23:00 +10°C° 0 mm 3 mps 762 mmHg 79%

    Tomorrow, 17 June, Monday

    Time Temperature Precipitation Wind Pressure Humidity
    00:00 +10°C° 0 mm 3 mps 762 mmHg 79%
    01:00 +10°C° 0 mm 3 mps 762 mmHg 80%
    02:00 +9°C° 0 mm 3 mps 762 mmHg 80%
    03:00 +9°C° 0 mm 3 mps 761 mmHg 81%
    04:00 +9°C° 0 mm 3 mps 761 mmHg 83%
    05:00 +9°C° 0 mm 3 mps 762 mmHg 85%
    06:00 +9°C° 0 mm 3 mps 762 mmHg 88%
    07:00 +10°C° 0.1 mm 3 mps 762 mmHg 88%
    08:00 +10°C° 0.1 mm 3 mps 762 mmHg 88%
    09:00 +11°C° 0.1 mm 3 mps 762 mmHg 89%
    10:00 +12°C° 0.2 mm 4 mps 762 mmHg 87%
    11:00 +12°C° 0.2 mm 4 mps 761 mmHg 85%
    12:00 +13°C° 0.2 mm 5 mps 761 mmHg 83%
    13:00 +13°C° 0.1 mm 5 mps 761 mmHg 79%
    14:00 +13°C° 0.1 mm 5 mps 760 mmHg 75%
    15:00 +13°C° 0.1 mm 5 mps 760 mmHg 70%
    16:00 +13°C° 0 mm 5 mps 760 mmHg 71%
    17:00 +13°C° 0 mm 5 mps 760 mmHg 72%
    18:00 +12°C° 0 mm 5 mps 760 mmHg 73%
    19:00 +11°C° 0.2 mm 6 mps 760 mmHg 76%
    20:00 +11°C° 0.2 mm 6 mps 759 mmHg 80%
    21:00 +11°C° 0.2 mm 6 mps 759 mmHg 83%
    22:00 +10°C° 1.2 mm 6 mps 760 mmHg 82%
    23:00 +10°C° 1.2 mm 7 mps 760 mmHg 81%

    Day after tomorrow, 18 June, Tuesday

    Time Temperature Precipitation Wind Pressure Humidity
    00:00 +10°C° 1.2 mm 7 mps 760 mmHg 80%
    01:00 +10°C° 0 mm 6 mps 760 mmHg 80%
    02:00 +9°C° 0 mm 6 mps 761 mmHg 81%
    03:00 +9°C° 0 mm 6 mps 761 mmHg 81%
    04:00 +8°C° 0 mm 5 mps 761 mmHg 81%
    05:00 +8°C° 0 mm 5 mps 762 mmHg 82%
    06:00 +8°C° 0 mm 5 mps 763 mmHg 82%
    07:00 +8°C° 0 mm 5 mps 763 mmHg 78%
    08:00 +9°C° 0 mm 5 mps 763 mmHg 75%
    09:00 +10°C° 0 mm 5 mps 764 mmHg 71%
    10:00 +10°C° 0.1 mm 5 mps 764 mmHg 68%
    11:00 +10°C° 0.1 mm 5 mps 764 mmHg 64%
    12:00 +12°C° 0.1 mm 5 mps 764 mmHg 60%
    13:00 +12°C° 0 mm 5 mps 764 mmHg 60%
    14:00 +12°C° 0 mm 5 mps 764 mmHg 59%
    15:00 +12°C° 0 mm 4 mps 764 mmHg 58%
    16:00 +11°C° 0 mm 4 mps 764 mmHg 63%
    17:00 +10°C° 0 mm 3 mps 765 mmHg 68%
    18:00 +9°C° 0 mm 3 mps 765 mmHg 73%
    19:00 +9°C° 0 mm 3 mps 766 mmHg 74%
    20:00 +8°C° 0 mm 3 mps 766 mmHg 75%
    21:00 +8°C° 0 mm 2 mps 766 mmHg 77%
    22:00 +8°C° 0 mm 2 mps 766 mmHg 77%
    23:00 +7°C° 0 mm 2 mps 766 mmHg 77%

    19 June, Wednesday

    Time Temperature Precipitation Wind Pressure Humidity
    00:00 +8°C° 0 mm 1 mps 766 mmHg 77%
    01:00 +8°C° 0 mm 1 mps 766 mmHg 76%
    02:00 +8°C° 0 mm 1 mps 766 mmHg 75%
    03:00 +8°C° 0 mm 1 mps 765 mmHg 74%
    04:00 +8°C° 0 mm 1 mps 766 mmHg 75%
    05:00 +8°C° 0 mm 1 mps 766 mmHg 75%
    06:00 +8°C° 0 mm 1 mps 766 mmHg 75%
    07:00 +9°C° 0 mm 1 mps 767 mmHg 73%
    08:00 +10°C° 0 mm 1 mps 767 mmHg 71%
    09:00 +11°C° 0 mm 1 mps 767 mmHg 68%
    10:00 +10°C° 0 mm 2 mps 767 mmHg 65%
    11:00 +12°C° 0 mm 2 mps 767 mmHg 61%
    12:00 +12°C° 0 mm 3 mps 766 mmHg 58%
    13:00 +12°C° 0 mm 2 mps 766 mmHg 57%
    14:00 +12°C° 0 mm 2 mps 766 mmHg 57%
    15:00 +12°C° 0 mm 2 mps 765 mmHg 56%
    16:00 +11°C° 0 mm 1 mps 765 mmHg 61%
    17:00 +10°C° 0 mm 1 mps 766 mmHg 66%
    18:00 +8°C° 0 mm 0 mps 766 mmHg 71%
    19:00 +7°C° 0 mm 0 mps 766 mmHg 72%
    20:00 +7°C° 0 mm 0 mps 765 mmHg 73%
    21:00 +8°C° 0 mm 1 mps 765 mmHg 74%
    22:00 +8°C° 0 mm 1 mps 765 mmHg 75%
    23:00 +8°C° 0 mm 1 mps 765 mmHg 76%

    20 June, Thursday

    Time Temperature Precipitation Wind Pressure Humidity
    00:00 +7°C° 0 mm 1 mps 765 mmHg 77%
    01:00 +8°C° 0 mm 1 mps 765 mmHg 76%
    02:00 +8°C° 0 mm 1 mps 765 mmHg 76%
    03:00 +8°C° 0 mm 1 mps 764 mmHg 75%
    04:00 +7°C° 0.2 mm 2 mps 765 mmHg 77%
    05:00 +7°C° 0.2 mm 2 mps 765 mmHg 79%
    06:00 +7°C° 0.2 mm 3 mps 765 mmHg 81%
    07:00 +7°C° 0.4 mm 2 mps 765 mmHg 83%
    08:00 +8°C° 0.4 mm 2 mps 765 mmHg 84%
    09:00 +8°C° 0.4 mm 2 mps 765 mmHg 85%
    10:00 +9°C° 0.2 mm 2 mps 764 mmHg 82%
    11:00 +9°C° 0.2 mm 2 mps 764 mmHg 80%
    12:00 +10°C° 0.2 mm 3 mps 764 mmHg 78%
    13:00 +10°C° 0.3 mm 3 mps 763 mmHg 77%
    14:00 +10°C° 0.3 mm 4 mps 763 mmHg 76%
    15:00 +9°C° 0.3 mm 5 mps 763 mmHg 74%
    16:00 +9°C° 0.4 mm 5 mps 763 mmHg 77%
    17:00 +8°C° 0.4 mm 4 mps 763 mmHg 80%
    18:00 +8°C° 0.4 mm 4 mps 763 mmHg 83%
    19:00 +8°C° 0.6 mm 4 mps 763 mmHg 82%
    20:00 +7°C° 0.6 mm 4 mps 763 mmHg 82%
    21:00 +7°C° 0.6 mm 4 mps 763 mmHg 81%
    22:00 +6°C° 0 mm 4 mps 764 mmHg 81%
    23:00 +6°C° 0 mm 4 mps 764 mmHg 82%

    21 June, Friday

    Time Temperature Precipitation Wind Pressure Humidity
    00:00 +7°C° 0 mm 3 mps 764 mmHg 82%
    01:00 +7°C° 0 mm 3 mps 764 mmHg 82%
    02:00 +7°C° 0 mm 3 mps 764 mmHg 81%
    03:00 +7°C° 0 mm 2 mps 764 mmHg 81%
    04:00 +7°C° 0 mm 2 mps 765 mmHg 81%
    05:00 +7°C° 0 mm 2 mps 765 mmHg 81%
    06:00 +6°C° 0 mm 2 mps 765 mmHg 80%
    07:00 +8°C° 0 mm 1 mps 766 mmHg 80%
    08:00 +9°C° 0 mm 1 mps 766 mmHg 79%
    09:00 +10°C° 0 mm 1 mps 767 mmHg 78%
    10:00 +11°C° 0 mm 1 mps 767 mmHg 73%
    11:00 +12°C° 0 mm 1 mps 767 mmHg 68%
    12:00 +13°C° 0 mm 2 mps 767 mmHg 63%
    13:00 +13°C° 0 mm 2 mps 767 mmHg 64%
    14:00 +12°C° 0 mm 2 mps 767 mmHg 64%
    15:00 +12°C° 0 mm 2 mps 767 mmHg 64%
    16:00 +12°C° 0 mm 2 mps 767 mmHg 67%
    17:00 +10°C° 0 mm 2 mps 767 mmHg 70%
    18:00 +10°C° 0 mm 2 mps 768 mmHg 73%
    19:00 +9°C° 0 mm 2 mps 768 mmHg 77%
    20:00 +8°C° 0 mm 2 mps 768 mmHg 80%
    21:00 +7°C° 0 mm 2 mps 768 mmHg 83%
    22:00 +7°C° 0 mm 2 mps 768 mmHg 84%
    23:00 +8°C° 0 mm 1 mps 768 mmHg 84%
    Show more